x

Buoy A01 - Mass. Bay/stellwagen (44029) Wave Buoy

10:04 - Fri 18th Apr 2014 All times are EDT. -4 hours from GMT.

  • Sig Wave height 6.2ft
  • Peak Period 11s
  • Wind
    11mph, 13mph gusts
  • Sea Temp 40°f
  • Air Temp 38°f
  • Sea Pressure 1034.2mb
  • Buoy A01 - Mass. Bay/stellwagen
  • Buoy A01 - Mass. Bay/stellwagen

More Historic Weather Station data

Upgrade to MSW Pro to gain access to the past 30 days of data for over 8000 Wavebouys and Weather Stations around the globe.

Join Pro

Comparision Forecast

View Surf forecast
   
ven. 04/18 10:04 6ft 11s 11 13 mph 1034.2mb 40f 38f
9:04 6ft 8s 16 20 mph 1033.1mb 40f 38f
8:04 5.5ft 8s 18 20 mph 1033.3mb 40f 38f
7:04 4.5ft 8s 18 22 mph 1032.7mb 40f 38f
6:04 5ft 8s 16 18 mph 1034.3mb 40f 38f
5:04 3.5ft 8s 11 16 mph 1035mb 40f 38f
4:04 4.5ft 8s 11 13 mph 1035.1mb 40f 38f
3:04 4.5ft 8s 11 16 mph 1035.2mb 40f 37f
2:04 4.5ft 8s 11 16 mph 1035.3mb 40f 37f
1:04 4.5ft 6s 11 16 mph 1036.1mb 40f 37f
12:04  -   -  13 16 mph 1037.1mb 40f 37f
jeu. 04/17 11:04 5.5ft 8s 13 16 mph 1038.2mb 40f 36f
10:04 5ft 6s 11 13 mph 1039.2mb 40f 36f
9:04 5.5ft 6s 11 13 mph 1039.6mb 40f 36f
8:04 5ft 6s 13 16 mph 1039.9mb 41f 36f
7:04 5ft 6s 11 13 mph 1040mb 40f 36f
6:04 5ft 6s 13 16 mph 1040.3mb 40f 36f
5:04 6ft 11s 13 16 mph 1040.7mb 41f 36f
4:04 5.5ft 11s 13 18 mph 1040.8mb 41f 36f
3:04 4.5ft 6s 16 18 mph 1040.9mb 41f 36f
2:04 6ft 6s 16 20 mph 1041.3mb 41f 36f
1:04 6ft 6s 16 20 mph 1041.5mb 40f 35f
12:04 5.5ft 6s 18 20 mph 1041.9mb 40f 35f
11:04 5ft 6s 18 22 mph 1042.2mb 40f 35f
10:04 6ft 6s 22 25 mph 1042mb 40f 34f
9:04 6ft 6s 22 27 mph 1041.6mb 40f 34f
8:04 5ft 5s 22 27 mph 1041.2mb 40f 34f
7:04 5ft 5s 22 27 mph 1040.4mb 40f 33f
6:04 6ft 11s 22 27 mph 1039.6mb 40f 33f
5:04 5.5ft 11s 22 27 mph 1038.9mb 40f 34f
4:04 6ft 5s 20 25 mph 1038.4mb 40f 34f
3:04 5.5ft 11s 20 25 mph 1037.2mb 40f 34f
2:04 5.5ft 11s 20 22 mph 1036.6mb 40f 35f
1:04 4ft 5s 18 22 mph 1035.8mb 40f 36f
12:04 5ft 11s 20 25 mph 1035.1mb 40f 36f
mer. 04/16 11:04 2.5ft 4s 20 25 mph 1034.5mb 40f 37f
10:04 4.5ft 11s 18 20 mph 1034mb 40f 37f
9:04 4.5ft 11s 18 22 mph 1033.1mb 40f 38f
8:04  -   -  16 20 mph 1031.8mb 40f 39f
7:04 2.5ft 5s 18 22 mph 1030.3mb 40f 39f
6:04 2.5ft 5s 18 22 mph 1029.4mb 40f 40f
5:04  -   -  18 25 mph 1028.3mb 40f 40f
4:04 5ft 11s 16 20 mph 1027.5mb 40f 38f
3:04 4.5ft 11s 13 18 mph 1026.8mb 40f 37f
2:04 5ft 11s 16 20 mph 1026.4mb 40f 36f
1:04 5ft 11s 18 22 mph 1025.1mb 39f 35f
12:04 4.5ft 11s 22 27 mph 1023.9mb 39f 34f
11:04 3.5ft 4s 25 36 mph 1022.9mb 39f 32f
10:04 4ft 4s 27 36 mph 1021.5mb 39f 32f
9:04 3ft 4s 29 36 mph 1020.3mb 39f 31f
8:04 4ft 4s 31 38 mph 1018.3mb 39f 31f
7:04 4.5ft 4s 29 36 mph 1015.4mb 39f 32f
6:04 3.5ft 4s 29 36 mph 1013.4mb 39f 34f
5:04 2.5ft 3s 27 31 mph 1011mb 39f 33f
4:04 3.5ft 8s 20 22 mph 1009.6mb 39f 37f
3:04 3.5ft 8s 22 27 mph 1007.2mb 40f 38f
2:04  -   -  22 27 mph 1006.6mb 40f 39f
1:04 3.5ft 5s 27 31 mph 1005.4mb 41f 42f
12:04 5ft 5s 20 25 mph 1003.5mb 41f 44f
mar. 04/15 11:04 5ft 6s 16 20 mph 1001.6mb 41f 47f
10:04 6ft 6s 18 22 mph 1000.7mb 41f 49f
9:04 6ft 6s 18 20 mph 1000.7mb 41f 47f
8:04 6ft 6s 18 20 mph 1000.9mb 41f 48f
7:04 6ft 5s 22 27 mph 1000.8mb 41f 50f
6:04 6ft 6s 27 31 mph 1001.4mb 42f 51f
5:04 6ft 6s 22 27 mph 1002.1mb 42f 49f
4:04 6.5ft 6s 22 27 mph 1002.4mb 42f 50f
3:04 5ft 5s 22 25 mph 1002.9mb 42f 50f
2:04 5ft 5s 22 25 mph 1004.1mb 42f 51f
1:04 3.5ft 5s 25 27 mph 1004.5mb 42f 52f
12:04 4.5ft 5s 16 18 mph 1006mb 42f 48f
7:04 4ft 5s 22 25 mph 1010mb 42f 49f
6:04 4ft 5s 13 16 mph 1010.2mb 42f 48f
5:04 4ft 5s 18 20 mph 1010.3mb 42f 50f
4:04 4ft 5s 11 13 mph 1010.4mb 42f 47f
3:04 3.5ft 5s 11
mph
1010.9mb 43f 47f
2:04 4ft 5s 9
mph
1011.1mb 42f 47f
1:04 3.5ft 5s 11 13 mph 1011.6mb 42f 48f
12:04 4ft 5s 13 16 mph 1011.5mb 42f 47f
lun. 04/14 11:04 4ft 5s 11 13 mph 1011.7mb 42f 47f
10:04 4ft 5s 13 16 mph 1012mb 42f 48f
9:04 4.5ft 5s 18 20 mph 1012mb 42f 49f
8:04 5ft 5s 18 20 mph 1012mb 42f 51f
7:04 4.5ft 5s 20 22 mph 1011.4mb 42f 52f
6:04 4ft 5s 16 20 mph 1011.5mb 42f 51f
5:04 4.5ft 5s 20 22 mph 1011.8mb 42f 53f
4:04 4.5ft 5s 22 27 mph 1011.7mb 42f 54f